Skip Page Navigation
NASA JPL Caltech
NASA Logo - Jet Propulsion Laboratory + View the NASA Portal
+ Near-Earth Object (NEO) Program
Search JPL
JPL Home Earth Solar System Stars & Galaxies Technology
JPL Solar System Dynamics
BODIES ORBITS EPHEMERIDES TOOLS PHYSICAL DATA DISCOVERY FAQ SITE MAP
JPL Small-Body Database Browser
Search: [ help ]  
1983 Bok (1975 LB)
Classification: Main-belt Asteroid          SPK-ID: 2001983
Ephemeris | Orbit Diagram | Orbital Elements | Physical Parameters | Discovery Circumstances ]

[ hide orbit diagram ]
Orbit Diagram
Note: Make sure you have Java enabled on your browser to see the applet. This applet is provided as a 3D orbit visualization tool. The applet was implemented using 2-body methods, and hence should not be used for determining accurate long-term trajectories (over several years or decades) or planetary encounter circumstances. For accurate long-term ephemerides, please instead use our Horizons system.
Orbit Viewer

Additional Notes: the orbits shown in the applet are color coded. The planets are white lines, and the asteroid/comet is a blue line. The bright white line indicates the portion of the orbit that is above the ecliptic plane, and the darker portion is below the ecliptic plane. Likewise for the asteroid/comet orbit, the light blue indicates the portion above the ecliptic plane, and the dark blue the portion below the ecliptic plane.

Orbit Viewer applet originally written and kindly provided by Osamu Ajiki (AstroArts), and further modified by Ron Baalke (JPL).


Orbital Elements at Epoch 2456400.5 (2013-Apr-18.0) TDB
Reference: MPO234851 (heliocentric ecliptic J2000)
 Element Value Uncertainty (1-sigma)   Units 
e 0.0985115 n/a  
a 2.6221991 n/a AU
q 2.3638823 n/a AU
i 9.40741 n/a deg
node 23.61197 n/a deg
peri 345.41343 n/a deg
M 250.37998 n/a deg
tp 2456872.7634049
(2014-Aug-03.26340490)
n/a JED
period 1550.9468595
4.25
n/a
n/a
d
yr
n 0.23211627 n/a deg/d
Q 2.8805159 n/a AU
  Orbit Determination Parameters
   # obs. used (total)      977  
   first obs. used      1950-??-??  
   last obs. used      2012-07-18  
   # oppositions      21  
   planetary ephem.      DE403  
   condition code      0  
   fit RMS      0.58  
   data source      MPC:mpn  
   producer      MPCLINUX  

Additional Information
 T_jup = 3.378 

Ephemeris | Orbit Diagram | Orbital Elements | Physical Parameters | Discovery Circumstances ]

Physical Parameter Table
Parameter Symbol Value Units Sigma Reference Notes
absolute magnitude H 12.6 mag n/a PDS3 (MPC 17264)  

1983 Bok (1975 LB)          Discovered 1975-Jun-09 by Roemer, E. at Tucson
Reference: DISCOVERY.DBLast Updated: 2003-08-29

Alternate Designations
 1975 LB = 1950 RV = 1963 UJ 
Ephemeris | Orbit Diagram | Orbital Elements | Physical Parameters | Discovery Circumstances ]
ABOUT SSD CREDITS/AWARDS PRIVACY/COPYRIGHT GLOSSARY LINKS
FirstGov 2013-Jun-20 00:46 UT
(server date/time)  
NASA Home Page
Site Manager:   Donald K. Yeomans
Webmaster  Alan B. Chamberlin